TimeEST,TemperatureF,Dew PointF,Humidity,Sea Level PressureIn,VisibilityMPH,Wind Direction,Wind SpeedMPH,Gust SpeedMPH,PrecipitationIn,Events,Conditions,WindDirDegrees,DateUTC
12:54 AM,37.9,18.0,45,30.16,-9999.0,North,6.9,-,N/A,,Unknown,10,2012-11-06 05:54:00
1:54 AM,37.0,18.0,46,30.18,-9999.0,North,10.4,-,N/A,,Unknown,360,2012-11-06 06:54:00
2:54 AM,37.0,19.0,48,30.18,-9999.0,North,10.4,-,N/A,,Unknown,360,2012-11-06 07:54:00
3:54 AM,36.0,17.1,46,30.17,-9999.0,North,8.1,-,N/A,,Unknown,10,2012-11-06 08:54:00
4:54 AM,36.0,18.0,48,30.18,-9999.0,North,8.1,-,N/A,,Unknown,360,2012-11-06 09:54:00
5:54 AM,36.0,18.0,48,30.19,-9999.0,North,9.2,-,N/A,,Unknown,360,2012-11-06 10:54:00
6:54 AM,36.0,19.9,52,30.22,-9999.0,NNW,6.9,-,N/A,,Unknown,340,2012-11-06 11:54:00
7:54 AM,37.9,19.0,47,30.23,-9999.0,North,5.8,-,N/A,,Unknown,360,2012-11-06 12:54:00
8:54 AM,37.9,19.9,48,30.23,-9999.0,NNW,8.1,-,N/A,,Unknown,340,2012-11-06 13:54:00
9:54 AM,39.9,18.0,41,30.25,-9999.0,Variable,4.6,-,N/A,,Unknown,0,2012-11-06 14:54:00
10:54 AM,39.0,18.0,43,30.25,-9999.0,Variable,4.6,-,N/A,,Unknown,0,2012-11-06 15:54:00
1:54 PM,41.0,19.0,41,30.21,-9999.0,Variable,3.5,-,N/A,,Unknown,0,2012-11-06 18:54:00
3:54 PM,41.0,21.0,45,30.19,-9999.0,Calm,Calm,-,N/A,,Unknown,0,2012-11-06 20:54:00
4:54 PM,39.0,21.9,50,30.17,-9999.0,Variable,4.6,-,N/A,,Unknown,0,2012-11-06 21:54:00
5:54 PM,41.0,21.0,45,30.18,-9999.0,NE,4.6,-,N/A,,Unknown,50,2012-11-06 22:54:00
6:54 PM,41.0,21.0,45,30.17,-9999.0,NE,5.8,-,N/A,,Unknown,50,2012-11-06 23:54:00
7:54 PM,42.1,25.0,51,30.16,-9999.0,Variable,5.8,-,N/A,,Unknown,0,2012-11-07 00:54:00
8:54 PM,43.0,27.0,53,30.15,-9999.0,ENE,4.6,-,N/A,,Unknown,60,2012-11-07 01:54:00
9:54 PM,42.1,30.0,62,30.13,-9999.0,ENE,11.5,21.9,N/A,,Unknown,60,2012-11-07 02:54:00
10:54 PM,42.1,28.0,58,30.11,-9999.0,ENE,12.7,20.7,N/A,,Unknown,60,2012-11-07 03:54:00
11:54 PM,43.0,28.9,58,30.10,-9999.0,ENE,11.5,19.6,N/A,,Unknown,60,2012-11-07 04:54:00